TimeEST,TemperatureF,Dew PointF,Humidity,Sea Level PressureIn,VisibilityMPH,Wind Direction,Wind SpeedMPH,Gust SpeedMPH,PrecipitationIn,Events,Conditions,WindDirDegrees,DateUTC
12:53 AM,69.1,64.9,87,29.94,10.0,Calm,Calm,-,N/A,,Clear,0,2012-11-06 05:53:00
1:53 AM,68.0,64.9,90,29.92,10.0,Calm,Calm,-,N/A,,Clear,0,2012-11-06 06:53:00
2:53 AM,66.0,64.0,93,29.91,9.0,Calm,Calm,-,N/A,,Mostly Cloudy,0,2012-11-06 07:53:00
3:53 AM,64.9,63.0,93,29.91,7.0,Calm,Calm,-,N/A,,Clear,0,2012-11-06 08:53:00
4:53 AM,64.9,62.1,90,29.92,9.0,Calm,Calm,-,N/A,,Mostly Cloudy,0,2012-11-06 09:53:00
5:53 AM,66.0,63.0,90,29.93,10.0,Calm,Calm,-,N/A,,Overcast,0,2012-11-06 10:53:00
7:53 AM,66.9,62.1,84,29.94,10.0,Calm,Calm,-,N/A,,Mostly Cloudy,0,2012-11-06 12:53:00
8:53 AM,69.1,63.0,81,29.95,10.0,Calm,Calm,-,N/A,,Mostly Cloudy,0,2012-11-06 13:53:00
9:53 AM,70.0,66.0,87,29.95,10.0,SSW,3.5,-,0.00,,Overcast,200,2012-11-06 14:53:00
10:53 AM,73.0,66.0,79,29.94,10.0,Calm,Calm,-,N/A,,Overcast,0,2012-11-06 15:53:00
11:53 AM,75.0,63.0,66,29.91,10.0,SSW,8.1,-,N/A,,Mostly Cloudy,210,2012-11-06 16:53:00
12:27 PM,71.6,64.4,78,29.90,1.8,North,15.0,-,0.02,Rain,Rain,360,2012-11-06 17:27:00
12:33 PM,69.8,66.2,88,29.90,0.8,NNW,13.8,20.7,0.13,Rain,Heavy Rain,330,2012-11-06 17:33:00
12:36 PM,69.8,66.2,88,29.89,0.5,North,11.5,20.7,0.26,Fog-Rain,Heavy Rain,360,2012-11-06 17:36:00
12:51 PM,68.0,64.4,88,29.89,1.5,North,10.4,-,0.61,Rain,Rain,360,2012-11-06 17:51:00
12:53 PM,66.9,64.0,90,29.89,2.5,North,9.2,-,0.62,Rain,Light Rain,350,2012-11-06 17:53:00
1:00 PM,66.2,62.6,88,29.89,3.0,North,5.8,-,0.00,Rain,Light Rain,360,2012-11-06 18:00:00
1:09 PM,66.2,64.4,94,29.89,2.5,NW,3.5,-,0.02,Rain,Light Rain,310,2012-11-06 18:09:00
1:16 PM,66.2,64.4,94,29.88,3.0,Calm,Calm,-,0.03,Rain,Light Rain,0,2012-11-06 18:16:00
1:53 PM,68.0,63.0,84,29.89,6.0,Calm,Calm,-,0.04,Rain,Light Rain,0,2012-11-06 18:53:00
2:53 PM,70.0,66.0,87,29.86,10.0,Calm,Calm,-,0.00,,Overcast,0,2012-11-06 19:53:00
3:53 PM,72.0,64.9,78,29.86,10.0,SW,5.8,-,N/A,,Mostly Cloudy,220,2012-11-06 20:53:00
4:53 PM,72.0,66.0,81,29.86,10.0,WSW,6.9,-,N/A,,Overcast,240,2012-11-06 21:53:00
5:53 PM,70.0,66.0,87,29.86,10.0,Calm,Calm,-,N/A,,Mostly Cloudy,0,2012-11-06 22:53:00
6:53 PM,69.1,64.9,87,29.87,10.0,Calm,Calm,-,N/A,,Partly Cloudy,0,2012-11-06 23:53:00
7:53 PM,68.0,64.9,90,29.88,10.0,Calm,Calm,-,N/A,,Clear,0,2012-11-07 00:53:00
8:53 PM,66.9,64.9,93,29.90,9.0,West,3.5,-,N/A,,Clear,260,2012-11-07 01:53:00
9:53 PM,68.0,64.9,90,29.91,10.0,NW,3.5,-,N/A,,Partly Cloudy,310,2012-11-07 02:53:00
10:53 PM,66.0,64.0,93,29.90,9.0,Calm,Calm,-,N/A,,Partly Cloudy,0,2012-11-07 03:53:00
11:53 PM,66.9,61.0,81,29.89,10.0,NNW,8.1,-,N/A,,Overcast,340,2012-11-07 04:53:00